Погода в Арлане

Россия / Республика Башкортостан     55°58′27″N   54°14′51″E
темп.,
°C
ветер,
м/с
пор.,
м/с
влажн.,
%
обл.,
%
осадки,
мм/ч
давл.,
гПа
погр.,
м
4 марта, чт
чт423:00−4сз71295100 2.6 1000563
02:00−11з499571 0.8 1000157
05:00−12з479667 0.8 1001140
08:00−12зюз479785 0.0 1001128
11:00−7юз6109492 0.1 1000467
14:00−5юз6993100 0.2 998537
17:00−4ююз71296100 0.7 996757
20:00−3ююз101795100 1.8 992961
5 марта, пт
пт523:00−1зюз91589100 3.4 9901078
02:00−4зюз9178660 0.1 991764
05:00−7з6149078 0.1 994517
08:00−11зюз4109490 0.0 997248
11:00−10з479378 0.0 1000330
14:00−7з478830 0.0 1002423
17:00−7зсз478415 0.0 1004486
20:00−12з33880 0.0 100623
6 марта, сб
сб623:00−14зюз34920 0.0 100932
02:00−16юз34900 0.0 100950
05:00−17юз459715 0.0 101084
08:00−17юз369891 0.1 101097
11:00−12зюз469595 0.4 1011318
14:00−9зюз3591100 0.4 1010500
17:00−8зсз2388100 0.5 1010542
20:00−14ссз239195 0.1 101021
7 марта, вс
вс723:00−16ссз239398 0.1 101130
02:00−19ссз239885 0.0 101020
05:00−21сз229970 0.0 101120
08:00−23з229960 0.0 101120
11:00−19з359660 0.0 1012220
14:00−15юз349186 0.0 1012350
17:00−14ююз469288 0.0 1012363
20:00−17ююв479566 0.0 1011110
8 марта, пн
пн823:00−16ююв5119474 0.0 1009295
02:00−14ююв61395100 0.1 1005439
05:00−12ю71395100 1.7 1002655
08:00−10ю71494100 1.6 998728
11:00−8зюз81285100 2.8 998820
14:00−7зюз8137963 0.0 10011091
17:00−6юз6127849 0.0 1003718
20:00−11ю448751 0.0 100360